| time (UTC) | temp F | wind direction | speed MPH | gust MPH | rain 1hr in | rain 24hr in | rain mn in | humidity % | barometer mb |
| 20260506032747 | 75 | 135 | 6.0 | 10.0 | 0.00 | 0.00 | 0.00 | 80 | 1013.4 |
| 20260506031702 | 75 | 135 | 6.0 | 10.0 | 0.00 | 0.00 | 0.00 | 80 | 1013.2 |
| 20260506030617 | 75 | 158 | 6.0 | 9.0 | 0.00 | 0.00 | 0.00 | 80 | 1013.2 |
| 20260506030012 | 75 | 113 | 7.0 | 10.0 | 0.00 | 0.00 | 0.00 | 80 | 1012.9 |
| 20260506024445 | 75 | 158 | 6.0 | 9.0 | 0.00 | 0.00 | 0.00 | 80 | 1012.9 |
| 20260506023357 | 75 | 68 | 6.0 | 11.0 | 0.00 | 0.00 | 0.00 | 79 | 1012.9 |
| 20260506022311 | 75 | 158 | 6.0 | 11.0 | 0.00 | 0.00 | 0.00 | 79 | 1012.9 |
| 20260506021702 | 75 | 158 | 5.0 | 10.0 | 0.00 | 0.00 | 0.00 | 79 | 1013.1 |
| 20260506020636 | 75 | 113 | 4.0 | 7.0 | 0.00 | 0.00 | 0.00 | 79 | 1013.1 |
| 20260506015103 | 75 | 158 | 4.0 | 6.0 | 0.00 | 0.00 | 0.00 | 78 | 1012.9 |
| 20260506014011 | 75 | 180 | 4.0 | 6.0 | 0.00 | 0.00 | 0.00 | 78 | 1012.8 |
| 20260506012925 | 75 | 158 | 4.0 | 6.0 | 0.00 | 0.00 | 0.00 | 77 | 1012.8 |
| 20260506012332 | 75 | 135 | 4.0 | 5.0 | 0.00 | 0.00 | 0.00 | 76 | 1012.8 |
| 20260506010754 | 75 | 135 | 3.0 | 5.0 | 0.00 | 0.00 | 0.00 | 76 | 1012.8 |
| 20260506005707 | 76 | 113 | 3.0 | 5.0 | 0.00 | 0.00 | 0.00 | 76 | 1012.6 |
| 20260506004624 | 76 | 180 | 2.0 | 4.0 | 0.00 | 0.00 | 0.00 | 76 | 1012.6 |
| 20260506003535 | 76 | 135 | 3.0 | 5.0 | 0.00 | 0.00 | 0.00 | 76 | 1012.7 |
| 20260506002448 | 76 | 135 | 4.0 | 6.0 | 0.00 | 0.00 | 0.00 | 75 | 1012.7 |
| 20260506001402 | 76 | 158 | 5.0 | 9.0 | 0.00 | 0.00 | 0.00 | 75 | 1012.9 |
| 20260506000318 | 77 | 135 | 6.0 | 13.0 | 0.00 | 0.00 | 0.00 | 75 | 1012.9 |
| 20260505235231 | 77 | 158 | 6.0 | 10.0 | 0.00 | 0.00 | 0.00 | 75 | 1012.6 |
| 20260505234636 | 77 | 135 | 5.0 | 11.0 | 0.00 | 0.00 | 0.00 | 74 | 1012.6 |
| 20260505233101 | 77 | 135 | 6.0 | 11.0 | 0.00 | 0.00 | 0.00 | 74 | 1012.5 |
| 20260505232025 | 78 | 180 | 6.0 | 9.0 | 0.00 | 0.00 | 0.00 | 74 | 1012.6 |
| 20260505230930 | 77 | 158 | 6.0 | 11.0 | 0.00 | 0.00 | 0.00 | 74 | 1012.6 |
| 20260505225843 | 78 | 135 | 6.0 | 11.0 | 0.00 | 0.00 | 0.00 | 73 | 1012.6 |
| 20260505224758 | 78 | 270 | 7.0 | 16.0 | 0.00 | 0.00 | 0.00 | 73 | 1012.6 |
| 20260505223715 | 78 | 158 | 7.0 | 13.0 | 0.00 | 0.00 | 0.00 | 73 | 1012.8 |
| 20260505222624 | 78 | 203 | 7.0 | 11.0 | 0.00 | 0.00 | 0.00 | 73 | 1012.8 |
| 20260505221539 | 78 | 203 | 6.0 | 10.0 | 0.00 | 0.00 | 0.00 | 73 | 1012.7 |
| 20260505220931 | 78 | 135 | 8.0 | 14.0 | 0.00 | 0.00 | 0.00 | 73 | 1012.7 |
| 20260505215406 | 78 | 135 | 7.0 | 9.0 | 0.00 | 0.00 | 0.00 | 73 | 1013.1 |
| 20260505214759 | 78 | 158 | 7.0 | 12.0 | 0.00 | 0.00 | 0.00 | 73 | 1013.1 |
| 20260505213240 | 78 | 158 | 8.0 | 15.0 | 0.00 | 0.00 | 0.00 | 72 | 1013.0 |
| 20260505212147 | 78 | 158 | 7.0 | 11.0 | 0.00 | 0.00 | 0.00 | 73 | 1013.0 |
| 20260505211103 | 79 | 180 | 8.0 | 12.0 | 0.00 | 0.00 | 0.00 | 72 | 1013.2 |
| 20260505210016 | 78 | 135 | 8.0 | 15.0 | 0.00 | 0.00 | 0.00 | 73 | 1013.2 |
| 20260505204928 | 78 | 180 | 8.0 | 14.0 | 0.00 | 0.00 | 0.00 | 73 | 1013.2 |
| 20260505203842 | 78 | 135 | 7.0 | 12.0 | 0.00 | 0.00 | 0.00 | 73 | 1013.1 |
| 20260505202803 | 78 | 158 | 9.0 | 11.0 | 0.00 | 0.00 | 0.00 | 72 | 1013.1 |
| 20260505201710 | 78 | 158 | 8.0 | 12.0 | 0.00 | 0.00 | 0.00 | 72 | 1013.4 |
| 20260505200633 | 79 | 180 | 8.0 | 15.0 | 0.00 | 0.00 | 0.00 | 72 | 1013.4 |
| 20260505195538 | 79 | 158 | 8.0 | 19.0 | 0.00 | 0.00 | 0.00 | 70 | 1013.6 |
| 20260505194453 | 79 | 180 | 7.0 | 11.0 | 0.00 | 0.00 | 0.00 | 70 | 1013.6 |
| 20260505193406 | 79 | 135 | 7.0 | 16.0 | 0.00 | 0.00 | 0.00 | 72 | 1013.4 |
| 20260505192802 | 79 | 158 | 7.0 | 12.0 | 0.00 | 0.00 | 0.00 | 71 | 1013.4 |
| 20260505191236 | 79 | 135 | 9.0 | 14.0 | 0.00 | 0.00 | 0.00 | 71 | 1013.5 |
| 20260505190151 | 79 | 158 | 7.0 | 13.0 | 0.00 | 0.00 | 0.00 | 70 | 1013.5 |
| 20260505185540 | 79 | 158 | 7.0 | 12.0 | 0.00 | 0.00 | 0.00 | 71 | 1013.8 |
| 20260505184027 | 78 | 180 | 8.0 | 16.0 | 0.00 | 0.00 | 0.00 | 71 | 1013.9 |
| 20260505182933 | 79 | 158 | 8.0 | 15.0 | 0.00 | 0.00 | 0.00 | 70 | 1013.9 |
| 20260505181853 | 79 | 225 | 7.0 | 12.0 | 0.00 | 0.00 | 0.00 | 69 | 1014.2 |
| 20260505181237 | 79 | 158 | 7.0 | 10.0 | 0.00 | 0.00 | 0.00 | 69 | 1014.2 |
| 20260505175717 | 79 | 203 | 7.0 | 13.0 | 0.00 | 0.00 | 0.00 | 68 | 1014.1 |
| 20260505174627 | 78 | 135 | 7.0 | 12.0 | 0.00 | 0.00 | 0.00 | 69 | 1014.1 |
| 20260505174019 | 78 | 180 | 7.0 | 15.0 | 0.00 | 0.00 | 0.00 | 68 | 1014.2 |
| 20260505172457 | 79 | 180 | 9.0 | 14.0 | 0.00 | 0.00 | 0.00 | 66 | 1014.2 |
| 20260505171416 | 79 | 158 | 7.0 | 11.0 | 0.00 | 0.00 | 0.00 | 68 | 1014.2 |
| 20260505170325 | 78 | 135 | 8.0 | 14.0 | 0.00 | 0.00 | 0.00 | 69 | 1014.2 |
| 20260505165721 | 78 | 158 | 7.0 | 14.0 | 0.00 | 0.00 | 0.00 | 68 | 1014.4 |
| 20260505164152 | 79 | 158 | 7.0 | 10.0 | 0.00 | 0.00 | 0.00 | 69 | 1014.4 |
| 20260505163542 | 78 | 203 | 8.0 | 12.0 | 0.00 | 0.00 | 0.00 | 67 | 1014.4 |
| 20260505162029 | 79 | 135 | 7.0 | 9.0 | 0.00 | 0.00 | 0.00 | 67 | 1014.4 |
| 20260505160939 | 78 | 135 | 6.0 | 8.0 | 0.00 | 0.00 | 0.00 | 68 | 1014.4 |
| 20260505152631 | 76 | 180 | 8.0 | 14.0 | 0.00 | 0.00 | 0.00 | 67 | 1014.3 |
| 20260505151545 | 77 | 180 | 7.0 | 11.0 | 0.00 | 0.00 | 0.00 | 68 | 1014.2 |
| 20260505150506 | 76 | 158 | 7.0 | 12.0 | 0.00 | 0.00 | 0.00 | 68 | 1014.2 |
| 20260505124507 | 70 | 158 | 4.0 | 9.0 | 0.00 | 0.00 | 0.00 | 78 | 1013.9 |
| 20260505123424 | 69 | 158 | 4.0 | 7.0 | 0.00 | 0.00 | 0.00 | 79 | 1013.6 |
| 20260505122337 | 69 | 180 | 3.0 | 6.0 | 0.00 | 0.00 | 0.00 | 79 | 1013.6 |
| 20260505121250 | 68 | 180 | 2.0 | 3.0 | 0.00 | 0.00 | 0.00 | 79 | 1013.6 |
| 20260505120649 | 67 | 180 | 2.0 | 3.0 | 0.00 | 0.00 | 0.00 | 79 | 1013.6 |
| 20260505115125 | 67 | 180 | 1.0 | 4.0 | 0.00 | 0.00 | 0.00 | 78 | 1013.4 |
| 20260505114947 | 66 | 158 | 0.0 | 0.0 | 0.00 | 0.00 | 0.00 | 78 | 1013.3 |
| 20260505112947 | 65 | 180 | 0.0 | 2.0 | 0.00 | 0.00 | 0.00 | 78 | 1013.3 |
| 20260505111903 | 66 | 180 | 0.0 | 0.0 | 0.00 | 0.00 | 0.00 | 77 | 1013.2 |
| 20260505111301 | 66 | 113 | 0.0 | 2.0 | 0.00 | 0.00 | 0.00 | 77 | 1013.2 |
| 20260505101425 | 65 | 180 | 0.0 | 0.0 | 0.00 | 0.00 | 0.00 | 76 | 1013.4 |
| 20260505100339 | 65 | 338 | 0.0 | 0.0 | 0.00 | 0.00 | 0.00 | 75 | 1013.4 |
| 20260505095726 | 65 | 315 | 0.0 | 0.0 | 0.00 | 0.00 | 0.00 | 75 | 1013.2 |
| 20260505094213 | 65 | 338 | 0.0 | 2.0 | 0.00 | 0.00 | 0.00 | 75 | 1013.2 |
| 20260505093123 | 65 | 315 | 0.0 | 0.0 | 0.00 | 0.00 | 0.00 | 75 | 1013.3 |
| 20260505092039 | 65 | 293 | 0.0 | 0.0 | 0.00 | 0.00 | 0.00 | 75 | 1013.1 |
| 20260505090950 | 65 | 315 | 0.0 | 0.0 | 0.00 | 0.00 | 0.00 | 75 | 1013.1 |
| 20260505085903 | 66 | 0 | 0.0 | 0.0 | 0.00 | 0.00 | 0.00 | 75 | 1013.2 |
| 20260505084815 | 66 | 23 | 0.0 | 0.0 | 0.00 | 0.00 | 0.00 | 75 | 1013.2 |
| 20260505083736 | 65 | 293 | 0.0 | 0.0 | 0.00 | 0.00 | 0.00 | 74 | 1013.2 |
| 20260505083129 | 66 | 338 | 0.0 | 0.0 | 0.00 | 0.00 | 0.00 | 74 | 1013.2 |
| 20260505081601 | 66 | 23 | 0.0 | 0.0 | 0.00 | 0.00 | 0.00 | 74 | 1013.5 |
| 20260505080512 | 65 | 158 | 0.0 | 0.0 | 0.00 | 0.00 | 0.00 | 74 | 1013.5 |
| 20260505075427 | 65 | 225 | 0.0 | 0.0 | 0.00 | 0.00 | 0.00 | 73 | 1013.2 |
| 20260505074343 | 66 | 158 | 0.0 | 0.0 | 0.00 | 0.00 | 0.00 | 73 | 1013.2 |
| 20260505073302 | 66 | 135 | 0.0 | 0.0 | 0.00 | 0.00 | 0.00 | 72 | 1013.2 |
| 20260505072650 | 66 | 158 | 0.0 | 0.0 | 0.00 | 0.00 | 0.00 | 71 | 1013.2 |
| 20260505071122 | 67 | 158 | 0.0 | 0.0 | 0.00 | 0.00 | 0.00 | 70 | 1013.6 |
| 20260505070037 | 67 | 135 | 0.0 | 0.0 | 0.00 | 0.00 | 0.00 | 70 | 1014.3 |
| 20260505064951 | 67 | 113 | 0.0 | 0.0 | 0.00 | 0.00 | 0.00 | 69 | 1014.3 |
| 20260505063906 | 68 | 113 | 0.0 | 0.0 | 0.00 | 0.00 | 0.00 | 68 | 1014.6 |
| 20260505062825 | 68 | 135 | 1.0 | 2.0 | 0.00 | 0.00 | 0.00 | 68 | 1014.6 |
| 20260505061732 | 69 | 225 | 2.0 | 4.0 | 0.00 | 0.00 | 0.00 | 67 | 1014.4 |
| 20260505060648 | 69 | 203 | 3.0 | 5.0 | 0.00 | 0.00 | 0.00 | 67 | 1014.4 |
| 20260505055601 | 69 | 203 | 2.0 | 4.0 | 0.00 | 0.00 | 0.00 | 66 | 1014.6 |
| 20260505054517 | 69 | 158 | 2.0 | 3.0 | 0.00 | 0.00 | 0.00 | 66 | 1014.6 |
| 20260505053427 | 69 | 135 | 2.0 | 3.0 | 0.00 | 0.00 | 0.00 | 66 | 1014.3 |
| 20260505052347 | 69 | 158 | 2.0 | 4.0 | 0.00 | 0.00 | 0.00 | 66 | 1014.3 |
| 20260505051257 | 69 | 135 | 3.0 | 5.0 | 0.00 | 0.00 | 0.00 | 66 | 1014.6 |
| 20260505050652 | 69 | 135 | 3.0 | 5.0 | 0.00 | 0.00 | 0.00 | 65 | 1014.6 |
| 20260505041255 | 70 | 113 | 3.0 | 5.0 | 0.00 | 0.00 | 0.00 | 63 | 1014.7 |
| 20260505035734 | 70 | 135 | 4.0 | 7.0 | 0.00 | 0.00 | 0.00 | 63 | 1015.0 |
| 20260505035605 | 70 | 113 | 4.0 | 6.0 | 0.00 | 0.00 | 0.00 | 62 | 1015.0 |
| 20260505033604 | 70 | 135 | 3.0 | 6.0 | 0.00 | 0.00 | 0.00 | 61 | 1014.9 |